Weather observations for the past three days for
Faith
Imperial (Metric)
Date Time (mdt) Wind (mph) Vis. (mi.) Weather Sky Cond. Temperature (ºF) Relative Humidity Wind Chill (°F) Heat Index (°F) Pressure Precipitation (in)
Air Dwpt 6 hour altimeter (in) sea level (mb) 1 hr 3 hr 6 hr
Max. Min.
04 12:56 SE 17 0.00 NULL NULL 88 60.1 39% 88 29.87 1009.3
04 11:56 SE 20 G 31 0.00 NULL NULL 81 61 84 62.1 51% 82 29.88 1010.1
04 09:56 SE 12 0.00 NULL NULL 66.9 63 87% 29.93 1012.5
04 08:56 SE 12 0.00 NULL NULL 66.9 63 87% 29.92 1012.2
04 07:56 SE 13 0.00 NULL NULL 66 63 90% 29.9 1011.3
04 06:56 SE 12 0.00 NULL NULL 64.9 62.1 90% 29.89 1010.8
04 05:56 E 10 0.00 NULL NULL 62.1 61 70 57 96% 29.88 1010.1
04 04:56 E 9 0.00 NULL NULL 60.1 59 96% 29.87 1010.0
04 03:56 NE 10 0.00 NULL NULL 59 57 93% 29.88 1010.3
04 02:56 SE 8 0.00 NULL NULL 64 59 84% 29.87 1009.8
04 01:56 S 9 0.00 NULL NULL 62.1 57 84% 29.88 1010.3
04 00:56 SE 13 0.00 NULL NULL 69.1 59 70% 29.87 1009.7
03 23:56 E 10 0.00 NULL NULL 69.1 59 86 66 70% 29.85 1009.1
03 22:56 E 9 0.00 NULL NULL 68 55.9 65% 29.85 1009.0
03 21:56 E 9 0.00 NULL NULL 66 57 73% 29.85 1009.3
03 20:56 E 10 0.00 NULL NULL 69.1 55 61% 29.84 1009.0
03 19:56 NE 12 0.00 NULL NULL 73.9 52 46% 29.83 1008.5
03 18:56 E 10 0.00 NULL NULL 80.1 53.1 39% 80 29.82 1008.4
03 17:56 E 14 0.00 NULL NULL 86 51.1 88 82.9 30% 84 29.81 1007.9
03 16:56 NE 7 G 16 0.00 NULL NULL 87.1 51.1 29% 85 29.81 1007.8
03 15:56 N 8 G 17 0.00 NULL NULL 87.1 48.9 27% 84 29.8 1007.4
03 14:56 N 15 G 21 0.00 NULL NULL 86 55.9 36% 85 29.79 1007.1
03 13:56 N 15 0.00 NULL NULL 86 57 37% 85 29.8 1007.2
03 12:56 N 16 G 29 0.00 NULL NULL 86 55.9 36% 85 29.78 1006.5
03 11:56 N 14 0.00 NULL NULL 82.9 57.9 82.9 62.1 43% 83 29.78 1006.4
03 10:56 NW 16 G 26 0.00 NULL NULL 81 59 47% 81 29.77 1006.0
03 09:56 NW 18 0.00 NULL NULL 80.1 53.1 39% 80 29.75 1005.4
03 08:56 W 14 0.00 NULL NULL 77 50 39% 78 29.74 1005.1
03 07:56 SW 15 0.00 NULL NULL 70 51.1 51% 29.73 1005.1
03 06:56 S 15 0.00 NULL NULL 64 51.1 63% 29.72 1004.8
03 05:56 S 14 0.00 NULL NULL 62.1 55 72 62.1 78% 29.71 1004.5
03 04:56 S 16 0.00 NULL NULL 63 59 87% 29.71 1004.3
03 03:56 S 16 0.00 NULL NULL 64 62.1 93% 29.71 1004.2
03 02:56 S 15 0.00 NULL NULL 66 64 93% 29.7 1004.0
03 01:56 SE 14 0.00 NULL NULL 69.1 66 90% 29.72 1004.7
03 00:56 SE 13 0.00 NULL NULL 70 66.9 90% 29.74 1005.3
02 23:56 SE 15 0.00 NULL NULL 72 66.9 87.1 72 84% 29.74 1005.4
02 22:56 SE 16 0.00 NULL NULL 75 66.9 76% 76 29.76 1006.2
02 21:56 SE 20 G 28 0.00 NULL NULL 75.9 66 72% 77 29.76 1006.1
02 20:56 E 15 G 26 0.00 NULL NULL 77 64.9 66% 79 29.76 1006.2
02 19:56 E 14 0.00 NULL NULL 78.1 64 62% 80 29.75 1006.1
02 18:56 E 14 0.00 NULL NULL 82 64 55% 84 29.76 1006.3
02 17:56 SE 17 G 24 0.00 NULL NULL 87.1 60.1 88 73.9 40% 87 29.76 1006.1
02 16:56 SE 9 G 22 0.00 NULL NULL 87.1 59 39% 86 29.78 1006.7
02 15:56 SE 14 G 24 0.00 NULL NULL 87.1 62.1 43% 88 29.8 1007.4
02 14:56 SE 12 G 16 0.00 NULL NULL 86 63 46% 87 29.81 1007.9
02 13:56 SE 12 G 16 0.00 NULL NULL 81 63 54% 82 29.84 1009.0
02 12:56 SE 9 0.00 NULL NULL 79 63 58% 81 29.86 1009.9
02 11:56 SE 13 0.00 NULL NULL 73.9 63 75 61 69% 29.89 1011.3
02 10:56 S 9 G 18 0.00 NULL NULL 72 62.1 71% 29.9 1011.6
02 09:56 SE 9 0.00 NULL NULL 69.1 61 76% 29.9 1011.6
02 08:56 SE 10 0.00 NULL NULL 66 60.1 81% 29.91 1011.9
02 07:56 E 8 0.00 NULL NULL 63 59 87% 29.91 1012.2
02 06:56 E 9 0.00 NULL NULL 62.1 57.9 86% 29.91 1012.0
02 05:56 E 9 0.00 NULL NULL 61 57.9 61 55.9 90% 29.9 1011.7
02 04:56 E 6 0.00 NULL NULL 57 55 93% 29.9 1011.8
02 03:56 NE 7 0.00 NULL NULL 57 54 90% 29.9 1011.8
02 02:56 E 7 0.00 NULL NULL 59 55 87% 29.9 1011.8
02 01:56 NE 7 0.00 NULL NULL 60.1 54 80% 29.91 1011.9
02 00:56 E 7 0.00 NULL NULL 61 54 78% 29.92 1012.1
01 23:56 NE 7 0.00 NULL NULL 60.1 53.1 71.1 60.1 78% 29.92 1012.3
01 22:56 E 7 0.00 NULL NULL 61 53.1 75% 29.93 1012.5
01 21:56 E 7 0.00 NULL NULL 62.1 53.1 73% 29.93 1012.6
01 20:56 E 7 0.00 NULL NULL 64 55 73% 29.94 1012.9
01 19:56 NE 8 0.00 NULL NULL 66 55.9 70% 29.94 1013.0
01 18:56 E 7 0.00 NULL NULL 69.1 52 55% 29.94 1013.3
01 17:56 E 8 0.00 NULL NULL 70 55 73.9 70 59% 29.95 1013.6
01 16:56 E 13 0.00 NULL NULL 71.1 55 57% 29.96 1013.8
01 15:56 E 6 0.00 NULL NULL 70 54 57% 29.96 1013.7
01 14:56 SE 7 0.00 NULL NULL 71.1 52 51% 29.98 1014.3
Date Time (mdt) Wind (mph) Vis. (mi.) Weather Sky Cond. Air Dwpt Max. Min. Relative Humidity Wind Chill (°F) Heat Index (°F) altimeter (in) sea level (mb) 1 hr 3 hr 6 hr
6 hour
Temperature (ºF) Pressure Precipitation (in)